Weather in Osoivka

Ukraine / Sumi District     50°54′05″N   35°09′34″E
temp.,
°C
wind,
m/s
gust,
m/s
humid.,
%
clouds,
%
prec.,
mm/h
press.,
hPa
HPBL,
m
15 april, thu
thu1500:00+10nw229293 0.8 101472
03:00+10s239295 1.7 101372
06:00+7ssw369427 0.0 1013152
09:00+11ssw4673100 0.0 1013557
12:00+14s565786 0.0 10131531
15:00+14sse5650100 0.1 10121846
18:00+13sse346525 0.0 1012541
21:00+10s4788100 1.0 1012330
16 april, fri
fri1600:00+9sse488627 1.2 1012634
03:00+8se378885 1.3 1013331
06:00+8se388859 0.1 1013472
09:00+8se5884100 0.3 1014862
12:00+10sse687496 0.4 10151089
15:00+12sse676659 0.9 10151238
18:00+10sse6878100 0.4 1016672
21:00+8sse4786100 1.0 1017326
17 april, sat
sat1700:00+6ssw249246 0.0 1017100
03:00+6s3591100 0.1 1018314
06:00+6w129096 0.3 1019117
09:00+8w227947 0.3 1020456
12:00+10wsw446399 0.2 10191173
15:00+11wsw3455100 0.3 10191372
18:00+9wsw4567100 0.0 1019560
21:00+7sw368165 0.1 1020155
18 april, sun
sun1800:00+6sw3584100 0.1 1020207
03:00+6sw2487100 0.1 1019183
06:00+6wsw2387100 0.0 1019154
09:00+7w227597 0.1 1019327
12:00+10sw225584 0.0 10191457
15:00+9wnw4469100 0.1 1019819
18:00+7n1289100 1.5 1020224
21:00+7ene2389100 1.8 1020317
19 april, mon
mon1900:00+7ne248976 0.0 1021209
03:00+6nne358968 0.0 1021167
06:00+4nne359515 0.0 1020115
09:00+7ne2587100 0.0 1021536
12:00+9ene567531 0.3 1020803
15:00+11ene5662100 0.4 10191492
18:00+10ne597734 0.1 1019623
21:00+8ne613805 0.1 1018542